Notices

What's New in latest Release from April 7th, 2021:

- Updated Glossary, including Speed of Maximum Gust, and Total Hourly Precipitation

- Updated national and regional climate services offices contacts and prices information

- Addition of station inventory lists for 1981-2010, 1971-2000, and 1961-1990 Normals.

If you haven't already, please take our survey and provide feedback about our website: https://eccc.sondage-survey.ca/f/LanguageSelection.aspx?s=442ca660-fcf1-47c0-95a9-59707d6fd709

Hourly Data Report for November 01, 2016

VICTORIA UNIVERSITY CS
BRITISH COLUMBIA

48°27'25.200" N
123°18'16.600" W
60.10 m
1018598
71783
WYJ

Download Data

Hourly Data (November 2016)
Hourly Data Report for November 1, 2016
TIME
LST
Temp Definition
°C
Dew Point Definition
°C
Rel Hum Definition
%
Precip. Amount Definition
mm

Wind Dir Definition
10's deg

Wind Spd Definition
km/h
Visibility Definition
km
Stn Press Definition
kPa
Hmdx Definition


Wind Chill Definition


Weather Definition


00:00 9.1 8.7 97 0.0 30 2   100.18     LegendNANA
01:00 9.2 8.9 98 0.0 30 1   100.20     LegendNANA
02:00 9.5 9.2 98 0.0 14 4   100.23     LegendNANA
03:00 9.2 8.5 95 0.0 18 6   100.28     LegendNANA
04:00 9.3 8.0 92 0.0 17 5   100.28     LegendNANA
05:00 9.1 8.2 94 0.2 18 6   100.29     LegendNANA
06:00 8.8 8.1 95 0.3 20 3   100.33     LegendNANA
07:00 8.6 7.9 96 0.0 17 1   100.35     LegendNANA
08:00 8.9 8.4 97 0.0 10 2   100.38     LegendNANA
09:00 10.2 9.6 96 0.0 11 1   100.43     LegendNANA
10:00 10.8 9.7 93 0.0 11 2   100.42     LegendNANA
11:00 11.2 9.0 86 0.0 9 3   100.49     LegendNANA
12:00 11.2 8.9 85 0.0 9 5   100.52     LegendNANA
13:00 10.5 9.0 90 0.0 9 5   100.52     LegendNANA
14:00 10.8 9.3 90 0.0 8 4   100.52     LegendNANA
15:00 10.9 9.7 92 0.0 1 5   100.55     LegendNANA
16:00 10.3 9.7 96 0.8 34 7   100.52     LegendNANA
17:00 10.1 9.7 97 0.6 7 3   100.61     LegendNANA
18:00 9.7 9.4 98 2.9 5 2   100.53     LegendNANA
19:00 10.4 10.2 99 0.4 29 6   100.65     LegendNANA
20:00 10.0 9.8 99 1.6 1 3   100.63     LegendNANA
21:00 10.1 9.9 99 0.7 1 6   100.66     LegendNANA
22:00 9.9 9.8 99 0.6 0 1   100.65     LegendNANA
23:00 9.7 9.5 99 0.0 36 3   100.66     LegendNANA

Notes on Data Quality.

Legend

  • E = Estimated
  • M = Missing
  • NA = Not Available*
  • [empty] = Indicates an unobserved value
Date modified: